Time,TemperatureF,DewpointF,PressureIn,WindDirection,WindDirectionDegrees,WindSpeedMPH,WindSpeedGustMPH,Humidity,HourlyPrecipIn,Conditions,Clouds,dailyrainin,SoftwareType,DateUTC
2013-03-23 00:02:00,31.5,30.5,30.44,NNE,22,0.0,0.0,96,0.00,,---,0.00,VWS V14.01,2013-03-23 07:02:00,
2013-03-23 00:07:00,31.5,30.5,30.44,NNE,22,0.0,0.0,96,0.00,,---,0.00,VWS V14.01,2013-03-23 07:07:00,
2013-03-23 00:12:00,31.5,30.5,30.44,NNE,22,0.0,0.0,96,0.00,,---,0.00,VWS V14.01,2013-03-23 07:12:00,
2013-03-23 00:17:00,31.3,30.5,30.44,NNE,22,0.0,0.0,97,0.00,,---,0.00,VWS V14.01,2013-03-23 07:17:00,
2013-03-23 00:22:00,31.3,30.5,30.44,NNE,22,0.0,0.0,97,0.00,,---,0.00,VWS V14.01,2013-03-23 07:22:00,
2013-03-23 00:27:00,31.3,30.5,30.44,NNE,22,0.0,0.0,97,0.00,,---,0.00,VWS V14.01,2013-03-23 07:27:00,
2013-03-23 00:32:00,31.3,30.5,30.44,West,270,0.0,0.0,97,0.00,,---,0.00,VWS V14.01,2013-03-23 07:32:00,
2013-03-23 00:37:00,31.1,30.4,30.44,West,270,0.0,0.0,97,0.00,,---,0.00,VWS V14.01,2013-03-23 07:37:00,
2013-03-23 00:43:00,31.1,30.4,30.44,NW,315,0.0,0.0,97,0.00,,---,0.00,VWS V14.01,2013-03-23 07:43:00,
2013-03-23 00:48:00,31.3,30.5,30.44,NW,315,0.0,0.0,97,0.00,,---,0.00,VWS V14.01,2013-03-23 07:48:00,
2013-03-23 00:53:00,31.3,30.8,30.44,NW,315,0.0,0.0,98,0.00,,---,0.00,VWS V14.01,2013-03-23 07:53:00,
2013-03-23 00:58:00,31.3,30.8,30.44,NW,315,0.0,0.0,98,0.00,,---,0.00,VWS V14.01,2013-03-23 07:58:00,
2013-03-23 01:03:00,31.3,30.8,30.44,NW,315,0.0,0.0,98,0.00,,---,0.00,VWS V14.01,2013-03-23 08:03:00,
2013-03-23 01:08:00,31.5,31.0,30.44,NNW,338,0.0,0.0,98,0.00,,---,0.00,VWS V14.01,2013-03-23 08:08:00,
2013-03-23 01:13:00,31.5,31.0,30.44,NNW,338,0.0,0.0,98,0.00,,---,0.00,VWS V14.01,2013-03-23 08:13:00,
2013-03-23 01:18:00,31.5,31.0,30.44,NNW,338,0.0,0.0,98,0.00,,---,0.00,VWS V14.01,2013-03-23 08:18:00,
2013-03-23 01:23:00,31.5,31.0,30.44,NNW,338,0.0,0.0,98,0.00,,---,0.00,VWS V14.01,2013-03-23 08:23:00,
2013-03-23 01:29:00,31.3,30.8,30.44,NNW,338,0.0,0.0,98,0.00,,---,0.00,VWS V14.01,2013-03-23 08:29:00,
2013-03-23 01:34:00,31.3,30.8,30.44,NNW,338,0.0,0.0,98,0.00,,---,0.00,VWS V14.01,2013-03-23 08:34:00,
2013-03-23 01:39:00,31.3,30.8,30.44,NNW,338,0.0,0.0,98,0.00,,---,0.00,VWS V14.01,2013-03-23 08:39:00,
2013-03-23 01:44:00,31.3,30.8,30.44,NNW,338,0.0,0.0,98,0.00,,---,0.00,VWS V14.01,2013-03-23 08:44:00,
2013-03-23 01:49:00,31.3,30.8,30.44,North,0,0.0,0.0,98,0.00,,---,0.00,VWS V14.01,2013-03-23 08:49:00,
2013-03-23 01:55:00,31.3,30.8,30.44,North,0,0.0,0.0,98,0.00,,---,0.00,VWS V14.01,2013-03-23 08:55:00,
2013-03-23 02:00:00,31.3,30.8,30.44,NNE,22,0.0,0.0,98,0.00,,---,0.00,VWS V14.01,2013-03-23 09:00:00,
2013-03-23 02:05:00,31.3,30.8,30.44,NNE,22,0.0,0.0,98,0.00,,---,0.00,VWS V14.01,2013-03-23 09:05:00,
2013-03-23 02:10:00,31.3,30.8,30.41,NNE,22,0.0,0.0,98,0.00,,---,0.00,VWS V14.01,2013-03-23 09:10:00,
2013-03-23 02:15:00,31.3,30.8,30.41,NNE,22,0.0,0.0,98,0.00,,---,0.00,VWS V14.01,2013-03-23 09:15:00,
2013-03-23 02:20:00,31.3,30.8,30.41,NNE,22,0.0,0.0,98,0.00,,---,0.00,VWS V14.01,2013-03-23 09:20:00,
2013-03-23 02:25:00,31.5,31.0,30.44,NNE,22,0.0,0.0,98,0.00,,---,0.00,VWS V14.01,2013-03-23 09:25:00,
2013-03-23 02:30:00,31.5,31.0,30.44,NNE,22,0.0,0.0,98,0.00,,---,0.00,VWS V14.01,2013-03-23 09:30:00,
2013-03-23 02:36:00,31.6,31.1,30.44,NNE,22,0.0,0.0,98,0.00,,---,0.00,VWS V14.01,2013-03-23 09:36:00,
2013-03-23 02:41:00,31.6,31.1,30.41,NNE,22,0.0,0.0,98,0.00,,---,0.00,VWS V14.01,2013-03-23 09:41:00,
2013-03-23 02:46:00,31.6,31.1,30.41,NNE,22,0.0,0.0,98,0.00,,---,0.00,VWS V14.01,2013-03-23 09:46:00,
2013-03-23 02:52:00,31.6,31.1,30.41,NNE,22,0.0,0.0,98,0.00,,---,0.00,VWS V14.01,2013-03-23 09:52:00,
2013-03-23 02:57:00,31.6,31.1,30.44,NNE,22,0.0,0.0,98,0.00,,---,0.00,VWS V14.01,2013-03-23 09:57:00,
2013-03-23 03:02:00,31.6,31.1,30.44,NNE,22,0.0,0.0,98,0.00,,---,0.00,VWS V14.01,2013-03-23 10:02:00,
2013-03-23 03:07:00,31.6,31.1,30.44,NNE,22,0.0,0.0,98,0.00,,---,0.00,VWS V14.01,2013-03-23 10:07:00,
2013-03-23 03:12:00,31.6,31.1,30.44,NNE,22,0.0,0.0,98,0.00,,---,0.00,VWS V14.01,2013-03-23 10:12:00,
2013-03-23 03:18:00,31.6,31.1,30.44,NNE,22,0.0,0.0,98,0.00,,---,0.00,VWS V14.01,2013-03-23 10:18:00,
2013-03-23 03:23:00,31.6,31.1,30.44,NNE,22,0.0,0.0,98,0.00,,---,0.00,VWS V14.01,2013-03-23 10:23:00,
2013-03-23 03:28:00,31.6,31.1,30.44,NNE,22,0.0,0.0,98,0.00,,---,0.00,VWS V14.01,2013-03-23 10:28:00,
2013-03-23 03:33:00,31.6,31.1,30.44,NNE,22,0.0,0.0,98,0.00,,---,0.00,VWS V14.01,2013-03-23 10:33:00,
2013-03-23 03:38:00,31.6,31.1,30.47,NNE,22,0.0,0.0,98,0.00,,---,0.00,VWS V14.01,2013-03-23 10:38:00,
2013-03-23 03:44:00,31.6,31.1,30.47,NNE,22,0.0,0.0,98,0.00,,---,0.00,VWS V14.01,2013-03-23 10:44:00,
2013-03-23 03:49:00,31.8,31.3,30.47,NNE,22,0.0,0.0,98,0.00,,---,0.00,VWS V14.01,2013-03-23 10:49:00,
2013-03-23 03:54:00,31.6,31.1,30.47,NNE,22,0.0,0.0,98,0.00,,---,0.00,VWS V14.01,2013-03-23 10:54:00,
2013-03-23 03:59:00,31.6,31.1,30.47,SW,225,0.0,0.0,98,0.00,,---,0.00,VWS V14.01,2013-03-23 10:59:00,
2013-03-23 04:04:00,31.6,31.1,30.47,SW,225,0.0,0.0,98,0.00,,---,0.00,VWS V14.01,2013-03-23 11:04:00,
2013-03-23 04:09:00,31.6,31.1,30.44,SW,225,0.0,0.0,98,0.00,,---,0.00,VWS V14.01,2013-03-23 11:09:00,
2013-03-23 04:14:00,31.6,31.1,30.44,WNW,292,0.0,0.0,98,0.00,,---,0.00,VWS V14.01,2013-03-23 11:14:00,
2013-03-23 04:19:00,31.6,31.1,30.44,WNW,292,0.0,0.0,98,0.00,,---,0.00,VWS V14.01,2013-03-23 11:19:00,
2013-03-23 04:24:00,31.6,31.1,30.44,NNW,338,0.0,0.0,98,0.00,,---,0.00,VWS V14.01,2013-03-23 11:24:00,
2013-03-23 04:29:00,31.6,31.1,30.44,NNW,338,0.0,0.0,98,0.00,,---,0.00,VWS V14.01,2013-03-23 11:29:00,
2013-03-23 04:34:00,31.6,31.1,30.44,NNW,338,0.0,0.0,98,0.00,,---,0.00,VWS V14.01,2013-03-23 11:34:00,
2013-03-23 04:39:00,31.8,31.3,30.44,NNW,338,0.0,0.0,98,0.00,,---,0.00,VWS V14.01,2013-03-23 11:39:00,
2013-03-23 04:44:00,31.8,31.3,30.44,NNW,338,0.0,0.0,98,0.00,,---,0.00,VWS V14.01,2013-03-23 11:44:00,
2013-03-23 04:49:00,31.8,31.3,30.44,NNW,338,0.0,0.0,98,0.00,,---,0.00,VWS V14.01,2013-03-23 11:49:00,
2013-03-23 04:55:00,31.8,31.3,30.44,NNW,338,0.0,0.0,98,0.00,,---,0.00,VWS V14.01,2013-03-23 11:55:00,
2013-03-23 05:00:00,31.8,31.3,30.44,NNW,338,0.0,0.0,98,0.00,,---,0.00,VWS V14.01,2013-03-23 12:00:00,
2013-03-23 05:05:00,32.0,31.5,30.44,NNW,338,0.0,0.0,98,0.00,,---,0.00,VWS V14.01,2013-03-23 12:05:00,
2013-03-23 05:10:00,32.0,31.5,30.41,NNW,338,0.0,0.0,98,0.00,,---,0.00,VWS V14.01,2013-03-23 12:10:00,
2013-03-23 05:15:00,32.0,31.5,30.41,NNW,338,0.0,0.0,98,0.00,,---,0.00,VWS V14.01,2013-03-23 12:15:00,
2013-03-23 05:21:00,32.0,31.5,30.41,NNW,338,0.0,0.0,98,0.00,,---,0.00,VWS V14.01,2013-03-23 12:21:00,
2013-03-23 05:26:00,32.0,31.5,30.44,NNW,338,0.0,0.0,98,0.00,,---,0.00,VWS V14.01,2013-03-23 12:26:00,
2013-03-23 05:31:00,32.0,31.5,30.44,NNW,338,0.0,0.0,98,0.00,,---,0.00,VWS V14.01,2013-03-23 12:31:00,
2013-03-23 05:36:00,32.0,31.5,30.44,NNW,338,0.0,0.0,98,0.00,,---,0.00,VWS V14.01,2013-03-23 12:36:00,
2013-03-23 05:41:00,32.0,31.5,30.44,West,270,0.0,0.0,98,0.00,,---,0.00,VWS V14.01,2013-03-23 12:41:00,
2013-03-23 05:47:00,32.2,31.7,30.44,West,270,0.0,0.0,98,0.00,,---,0.00,VWS V14.01,2013-03-23 12:47:00,
2013-03-23 05:52:00,32.2,31.7,30.44,West,270,0.0,0.0,98,0.00,,---,0.00,VWS V14.01,2013-03-23 12:52:00,
2013-03-23 05:57:00,32.2,31.7,30.44,West,270,0.0,0.0,98,0.00,,---,0.00,VWS V14.01,2013-03-23 12:57:00,
2013-03-23 06:02:00,32.2,31.7,30.44,West,270,0.0,0.0,98,0.00,,---,0.00,VWS V14.01,2013-03-23 13:02:00,
2013-03-23 06:07:00,32.2,31.7,30.44,NNW,338,0.0,0.0,98,0.00,,---,0.00,VWS V14.01,2013-03-23 13:07:00,
2013-03-23 06:13:00,32.0,31.5,30.44,North,0,0.0,0.0,98,0.00,,---,0.00,VWS V14.01,2013-03-23 13:13:00,
2013-03-23 06:18:00,32.0,31.5,30.44,North,0,0.0,0.0,98,0.00,,---,0.00,VWS V14.01,2013-03-23 13:18:00,
2013-03-23 06:23:00,31.8,31.3,30.44,North,0,0.0,0.0,98,0.00,,---,0.00,VWS V14.01,2013-03-23 13:23:00,
2013-03-23 06:28:00,31.8,31.3,30.44,NNE,22,0.0,0.0,98,0.00,,---,0.00,VWS V14.01,2013-03-23 13:28:00,
2013-03-23 06:33:00,31.8,31.3,30.44,NNE,22,0.0,0.0,98,0.00,,---,0.00,VWS V14.01,2013-03-23 13:33:00,
2013-03-23 06:38:00,31.8,31.3,30.44,NNE,22,0.0,0.0,98,0.00,,---,0.00,VWS V14.01,2013-03-23 13:38:00,
2013-03-23 06:43:00,31.6,31.1,30.44,NNE,22,0.0,0.0,98,0.00,,---,0.00,VWS V14.01,2013-03-23 13:43:00,
2013-03-23 06:48:00,31.6,31.1,30.44,NNW,338,0.0,0.0,98,0.00,,---,0.00,VWS V14.01,2013-03-23 13:48:00,
2013-03-23 06:53:00,31.6,31.1,30.44,NNW,338,0.0,0.0,98,0.00,,---,0.00,VWS V14.01,2013-03-23 13:53:00,
2013-03-23 06:58:00,31.6,31.1,30.44,NNW,338,0.0,0.0,98,0.00,,---,0.00,VWS V14.01,2013-03-23 13:58:00,
2013-03-23 07:03:00,31.6,31.1,30.44,NNW,338,0.0,0.0,98,0.00,,---,0.00,VWS V14.01,2013-03-23 14:03:00,
2013-03-23 07:08:00,31.8,31.3,30.44,NNW,338,0.0,0.0,98,0.00,,---,0.00,VWS V14.01,2013-03-23 14:08:00,
2013-03-23 07:13:00,31.8,31.3,30.44,NNW,338,0.0,0.0,98,0.00,,---,0.00,VWS V14.01,2013-03-23 14:13:00,
2013-03-23 07:18:00,31.8,31.3,30.44,NNW,338,0.0,0.0,98,0.00,,---,0.00,VWS V14.01,2013-03-23 14:18:00,
2013-03-23 07:23:00,31.8,31.3,30.44,NNW,338,0.0,0.0,98,0.00,,---,0.00,VWS V14.01,2013-03-23 14:23:00,
2013-03-23 07:28:00,32.0,31.5,30.44,North,0,0.0,0.0,98,0.00,,---,0.00,VWS V14.01,2013-03-23 14:28:00,
2013-03-23 07:33:00,32.0,31.5,30.44,North,0,0.0,0.0,98,0.00,,---,0.00,VWS V14.01,2013-03-23 14:33:00,
2013-03-23 07:39:00,32.2,31.7,30.41,North,0,0.0,0.0,98,0.00,,---,0.00,VWS V14.01,2013-03-23 14:39:00,
2013-03-23 07:44:00,32.2,31.7,30.41,North,0,0.0,0.0,98,0.00,,---,0.00,VWS V14.01,2013-03-23 14:44:00,
2013-03-23 07:49:00,32.4,31.9,30.41,North,0,0.0,0.0,98,0.00,,---,0.00,VWS V14.01,2013-03-23 14:49:00,
2013-03-23 07:54:00,32.4,31.9,30.44,North,0,0.0,0.0,98,0.00,,---,0.00,VWS V14.01,2013-03-23 14:54:00,
2013-03-23 07:59:00,32.5,32.0,30.44,North,0,0.0,0.0,98,0.00,,---,0.00,VWS V14.01,2013-03-23 14:59:00,
2013-03-23 08:04:00,32.5,32.0,30.44,North,0,0.0,0.0,98,0.00,,---,0.00,VWS V14.01,2013-03-23 15:04:00,
2013-03-23 08:09:00,32.5,32.0,30.44,NE,45,0.0,0.0,98,0.00,,---,0.00,VWS V14.01,2013-03-23 15:09:00,
2013-03-23 08:14:00,32.5,32.0,30.44,ESE,112,0.0,0.0,98,0.00,,---,0.00,VWS V14.01,2013-03-23 15:14:00,
2013-03-23 08:20:00,32.7,32.2,30.44,ENE,68,0.0,0.0,98,0.00,,---,0.00,VWS V14.01,2013-03-23 15:20:00,
2013-03-23 08:25:00,32.9,32.4,30.44,ESE,112,0.0,0.0,98,0.00,,---,0.00,VWS V14.01,2013-03-23 15:25:00,
2013-03-23 08:30:00,32.9,32.4,30.44,ESE,112,0.0,0.0,98,0.00,,---,0.00,VWS V14.01,2013-03-23 15:30:00,
2013-03-23 08:35:00,33.1,32.6,30.44,ESE,112,0.0,0.0,98,0.00,,---,0.00,VWS V14.01,2013-03-23 15:35:00,
2013-03-23 08:40:00,33.1,32.6,30.44,ESE,112,0.0,0.0,98,0.00,,---,0.00,VWS V14.01,2013-03-23 15:40:00,
2013-03-23 08:45:00,33.3,32.8,30.44,SW,225,0.0,0.0,98,0.00,,---,0.00,VWS V14.01,2013-03-23 15:45:00,
2013-03-23 08:51:00,33.6,33.1,30.44,SW,225,0.0,0.0,98,0.00,,---,0.00,VWS V14.01,2013-03-23 15:51:00,
2013-03-23 08:56:00,33.8,33.3,30.44,WSW,248,0.0,0.0,98,0.00,,---,0.00,VWS V14.01,2013-03-23 15:56:00,
2013-03-23 09:01:00,34.0,33.5,30.44,WSW,248,0.0,0.0,98,0.00,,---,0.00,VWS V14.01,2013-03-23 16:01:00,
2013-03-23 09:06:00,34.2,33.7,30.44,WSW,248,0.0,0.0,98,0.00,,---,0.00,VWS V14.01,2013-03-23 16:06:00,
2013-03-23 09:11:00,34.3,33.8,30.41,WSW,248,0.0,0.0,98,0.00,,---,0.00,VWS V14.01,2013-03-23 16:11:00,
2013-03-23 09:17:00,34.7,34.2,30.41,West,270,0.0,0.0,98,0.00,,---,0.00,VWS V14.01,2013-03-23 16:17:00,
2013-03-23 09:22:00,34.9,34.4,30.41,NW,315,0.0,0.0,98,0.00,,---,0.00,VWS V14.01,2013-03-23 16:22:00,
2013-03-23 09:27:00,35.1,34.5,30.44,NW,315,0.0,0.0,98,0.00,,---,0.00,VWS V14.01,2013-03-23 16:27:00,
2013-03-23 09:32:00,35.4,34.9,30.44,South,180,0.0,0.0,98,0.00,,---,0.00,VWS V14.01,2013-03-23 16:32:00,
2013-03-23 09:37:00,35.6,35.1,30.44,SSW,202,0.0,0.0,98,0.00,,---,0.00,VWS V14.01,2013-03-23 16:37:00,
2013-03-23 09:42:00,36.0,35.5,30.44,WSW,248,0.0,0.0,98,0.00,,---,0.00,VWS V14.01,2013-03-23 16:42:00,
2013-03-23 09:47:00,36.5,36.0,30.44,SSE,158,0.0,0.0,98,0.00,,---,0.00,VWS V14.01,2013-03-23 16:47:00,
2013-03-23 09:52:00,37.2,36.7,30.44,SSE,158,0.0,0.0,98,0.00,,---,0.00,VWS V14.01,2013-03-23 16:52:00,
2013-03-23 09:57:00,37.8,37.2,30.44,ENE,68,0.0,1.1,98,0.00,,---,0.00,VWS V14.01,2013-03-23 16:57:00,
2013-03-23 10:02:00,37.8,37.2,30.44,NNE,22,0.0,0.0,98,0.00,,---,0.00,VWS V14.01,2013-03-23 17:02:00,
2013-03-23 10:08:00,38.1,37.6,30.44,NNE,22,1.6,1.6,98,0.00,,---,0.00,VWS V14.01,2013-03-23 17:08:00,
2013-03-23 10:13:00,38.1,37.6,30.44,NNE,22,2.0,2.5,98,0.00,,---,0.00,VWS V14.01,2013-03-23 17:13:00,
2013-03-23 10:18:00,38.5,38.0,30.44,NNE,22,0.0,1.6,98,0.00,,---,0.00,VWS V14.01,2013-03-23 17:18:00,
2013-03-23 10:23:00,39.2,38.7,30.47,ESE,112,0.0,0.0,98,0.00,,---,0.00,VWS V14.01,2013-03-23 17:23:00,
2013-03-23 10:28:00,39.6,39.0,30.47,West,270,1.1,1.6,98,0.00,,---,0.00,VWS V14.01,2013-03-23 17:28:00,
2013-03-23 10:33:00,40.3,39.8,30.47,West,270,0.0,0.0,98,0.00,,---,0.00,VWS V14.01,2013-03-23 17:33:00,
2013-03-23 10:38:00,40.3,39.5,30.44,West,270,0.0,0.0,97,0.00,,---,0.00,VWS V14.01,2013-03-23 17:38:00,
2013-03-23 10:44:00,40.6,39.6,30.44,North,0,0.0,0.0,96,0.00,,---,0.00,VWS V14.01,2013-03-23 17:44:00,
2013-03-23 10:49:00,41.2,39.9,30.44,West,270,0.0,0.0,95,0.00,,---,0.00,VWS V14.01,2013-03-23 17:49:00,
2013-03-23 10:54:00,42.3,40.9,30.44,NE,45,0.0,0.0,95,0.00,,---,0.00,VWS V14.01,2013-03-23 17:54:00,
2013-03-23 10:59:00,43.0,41.1,30.44,West,270,0.0,0.0,93,0.00,,---,0.00,VWS V14.01,2013-03-23 17:59:00,
2013-03-23 11:04:00,43.0,40.2,30.44,West,270,0.0,2.5,90,0.00,,---,0.00,VWS V14.01,2013-03-23 18:04:00,
2013-03-23 11:09:00,43.9,40.3,30.44,West,270,2.5,2.9,87,0.00,,---,0.00,VWS V14.01,2013-03-23 18:09:00,
2013-03-23 11:14:00,45.0,39.8,30.44,West,270,0.0,0.0,82,0.00,,---,0.00,VWS V14.01,2013-03-23 18:14:00,
2013-03-23 11:19:00,46.4,40.9,30.44,West,270,0.0,0.0,81,0.00,,---,0.00,VWS V14.01,2013-03-23 18:19:00,
2013-03-23 11:24:00,46.4,39.6,30.47,WNW,292,0.0,2.0,77,0.00,,---,0.00,VWS V14.01,2013-03-23 18:24:00,
2013-03-23 11:29:00,46.8,37.9,30.47,West,270,1.6,2.2,71,0.00,,---,0.00,VWS V14.01,2013-03-23 18:29:00,
2013-03-23 11:34:00,47.1,37.5,30.47,West,270,0.0,1.6,69,0.00,,---,0.00,VWS V14.01,2013-03-23 18:34:00,
2013-03-23 11:39:00,48.4,38.7,30.44,SW,225,0.0,0.0,69,0.00,,---,0.00,VWS V14.01,2013-03-23 18:39:00,
2013-03-23 11:44:00,48.9,38.1,30.44,SSW,202,0.0,2.0,66,0.00,,---,0.00,VWS V14.01,2013-03-23 18:44:00,
2013-03-23 11:50:00,50.2,37.7,30.44,SSW,202,0.0,0.0,62,0.00,,---,0.00,VWS V14.01,2013-03-23 18:50:00,
2013-03-23 11:55:00,50.4,37.0,30.44,West,270,0.0,0.0,60,0.00,,---,0.00,VWS V14.01,2013-03-23 18:55:00,
2013-03-23 12:00:00,50.9,35.3,30.44,SW,225,2.0,2.5,55,0.00,,---,0.00,VWS V14.01,2013-03-23 19:00:00,
2013-03-23 12:05:00,51.6,34.6,30.44,ESE,112,0.0,2.2,52,0.00,,---,0.00,VWS V14.01,2013-03-23 19:05:00,
2013-03-23 12:10:00,51.3,32.8,30.41,SW,225,3.1,3.6,49,0.00,,---,0.00,VWS V14.01,2013-03-23 19:10:00,
2013-03-23 12:15:00,51.8,32.8,30.41,SW,225,2.5,2.5,48,0.00,,---,0.00,VWS V14.01,2013-03-23 19:15:00,
2013-03-23 12:20:00,51.3,30.7,30.41,NE,45,2.9,3.4,45,0.00,,---,0.00,VWS V14.01,2013-03-23 19:20:00,
2013-03-23 12:25:00,51.4,32.9,30.44,SW,225,0.0,0.0,49,0.00,,---,0.00,VWS V14.01,2013-03-23 19:25:00,
2013-03-23 12:30:00,51.8,32.8,30.44,NNE,22,2.9,3.4,48,0.00,,---,0.00,VWS V14.01,2013-03-23 19:30:00,
2013-03-23 12:35:00,49.8,28.2,30.44,ENE,68,2.5,4.0,43,0.00,,---,0.00,VWS V14.01,2013-03-23 19:35:00,
2013-03-23 12:40:00,48.9,26.9,30.41,West,270,2.5,2.5,42,0.00,,---,0.00,VWS V14.01,2013-03-23 19:40:00,
2013-03-23 12:46:00,50.2,30.2,30.41,SSE,158,1.3,3.6,46,0.00,,---,0.00,VWS V14.01,2013-03-23 19:46:00,
2013-03-23 12:52:00,51.4,32.4,30.41,SW,225,0.0,0.0,48,0.00,,---,0.00,VWS V14.01,2013-03-23 19:52:00,
2013-03-23 12:57:00,52.5,32.9,30.41,West,270,1.3,2.0,47,0.00,,---,0.00,VWS V14.01,2013-03-23 19:57:00,
2013-03-23 13:02:00,52.3,32.7,30.41,West,270,0.0,0.0,47,0.00,,---,0.00,VWS V14.01,2013-03-23 20:02:00,
2013-03-23 13:07:00,52.0,28.4,30.41,ESE,112,2.5,3.1,40,0.00,,---,0.00,VWS V14.01,2013-03-23 20:07:00,
2013-03-23 13:12:00,51.6,29.9,30.41,West,270,1.3,1.3,43,0.00,,---,0.00,VWS V14.01,2013-03-23 20:12:00,
2013-03-23 13:17:00,51.8,30.6,30.41,NNE,22,2.5,2.5,44,0.00,,---,0.00,VWS V14.01,2013-03-23 20:17:00,
2013-03-23 13:22:00,51.8,31.1,30.41,WSW,248,0.0,1.3,45,0.00,,---,0.00,VWS V14.01,2013-03-23 20:22:00,
2013-03-23 13:27:00,51.8,31.1,30.41,West,270,0.0,1.1,45,0.00,,---,0.00,VWS V14.01,2013-03-23 20:27:00,
2013-03-23 13:33:00,51.8,28.3,30.41,West,270,2.7,2.9,40,0.00,,---,0.00,VWS V14.01,2013-03-23 20:33:00,
2013-03-23 13:38:00,51.4,29.7,30.41,West,270,0.0,0.0,43,0.00,,---,0.00,VWS V14.01,2013-03-23 20:38:00,
2013-03-23 13:43:00,52.2,29.8,30.39,NE,45,3.8,3.8,42,0.00,,---,0.00,VWS V14.01,2013-03-23 20:43:00,
2013-03-23 13:48:00,51.4,29.1,30.39,ENE,68,2.0,2.5,42,0.00,,---,0.00,VWS V14.01,2013-03-23 20:48:00,
2013-03-23 13:53:00,50.5,29.5,30.39,NNE,22,2.2,3.1,44,0.00,,---,0.00,VWS V14.01,2013-03-23 20:53:00,
2013-03-23 13:58:00,50.5,30.0,30.39,NNE,22,2.5,3.4,45,0.00,,---,0.00,VWS V14.01,2013-03-23 20:58:00,
2013-03-23 14:04:00,52.2,33.1,30.39,NNE,22,3.4,3.4,48,0.00,,---,0.00,VWS V14.01,2013-03-23 21:04:00,
2013-03-23 14:09:00,52.2,32.0,30.39,NNE,22,1.1,2.0,46,0.00,,---,0.00,VWS V14.01,2013-03-23 21:09:00,
2013-03-23 14:14:00,51.8,29.5,30.39,ENE,68,3.6,4.3,42,0.00,,---,0.00,VWS V14.01,2013-03-23 21:14:00,
2013-03-23 14:19:00,50.4,28.7,30.39,East,90,3.4,3.4,43,0.00,,---,0.00,VWS V14.01,2013-03-23 21:19:00,
2013-03-23 14:24:00,50.2,29.1,30.39,SSW,202,2.5,2.9,44,0.00,,---,0.00,VWS V14.01,2013-03-23 21:24:00,
2013-03-23 14:29:00,49.8,27.7,30.39,East,90,1.6,3.6,42,0.00,,---,0.00,VWS V14.01,2013-03-23 21:29:00,
2013-03-23 14:35:00,49.5,27.3,30.39,ENE,68,2.9,3.6,42,0.00,,---,0.00,VWS V14.01,2013-03-23 21:35:00,
2013-03-23 14:40:00,50.2,29.1,30.39,ESE,112,0.0,0.0,44,0.00,,---,0.00,VWS V14.01,2013-03-23 21:40:00,
2013-03-23 14:45:00,50.7,29.6,30.39,SSW,202,0.0,0.0,44,0.00,,---,0.00,VWS V14.01,2013-03-23 21:45:00,
2013-03-23 14:50:00,50.2,29.1,30.39,NE,45,3.4,3.4,44,0.00,,---,0.00,VWS V14.01,2013-03-23 21:50:00,
2013-03-23 14:55:00,49.6,28.6,30.39,ESE,112,2.0,3.1,44,0.00,,---,0.00,VWS V14.01,2013-03-23 21:55:00,
2013-03-23 15:00:00,49.8,28.8,30.39,East,90,0.0,0.0,44,0.00,,---,0.00,VWS V14.01,2013-03-23 22:00:00,
2013-03-23 15:06:00,50.0,27.8,30.39,SW,225,1.1,2.5,42,0.00,,---,0.00,VWS V14.01,2013-03-23 22:06:00,
2013-03-23 15:11:00,51.6,28.7,30.39,East,90,3.6,3.6,41,0.00,,---,0.00,VWS V14.01,2013-03-23 22:11:00,
2013-03-23 15:16:00,52.5,30.7,30.39,NNE,22,1.1,1.3,43,0.00,,---,0.00,VWS V14.01,2013-03-23 22:16:00,
2013-03-23 15:21:00,52.7,27.8,30.39,ENE,68,3.8,4.3,38,0.00,,---,0.00,VWS V14.01,2013-03-23 22:21:00,
2013-03-23 15:26:00,51.6,28.1,30.36,WNW,292,0.0,1.1,40,0.00,,---,0.00,VWS V14.01,2013-03-23 22:26:00,
2013-03-23 15:31:00,52.2,28.6,30.36,NW,315,0.0,2.7,40,0.00,,---,0.00,VWS V14.01,2013-03-23 22:31:00,
2013-03-23 15:36:00,53.6,29.3,30.36,SSE,158,1.3,2.0,39,0.00,,---,0.00,VWS V14.01,2013-03-23 22:36:00,
2013-03-23 15:41:00,53.1,29.4,30.36,North,0,0.0,2.0,40,0.00,,---,0.00,VWS V14.01,2013-03-23 22:41:00,
2013-03-23 15:47:00,52.9,28.0,30.36,NNW,338,0.0,1.6,38,0.00,,---,0.00,VWS V14.01,2013-03-23 22:47:00,
2013-03-23 15:52:00,51.3,26.5,30.36,NE,45,0.0,4.0,38,0.00,,---,0.00,VWS V14.01,2013-03-23 22:52:00,
2013-03-23 15:57:00,50.2,26.2,30.39,NNE,22,0.9,3.8,39,0.00,,---,0.00,VWS V14.01,2013-03-23 22:57:00,
2013-03-23 16:02:00,49.6,26.3,30.39,NNE,22,2.7,2.9,40,0.00,,---,0.00,VWS V14.01,2013-03-23 23:02:00,
2013-03-23 16:07:00,48.9,26.9,30.39,NE,45,0.0,1.1,42,0.00,,---,0.00,VWS V14.01,2013-03-23 23:07:00,
2013-03-23 16:12:00,48.6,27.1,30.36,NE,45,2.7,3.1,43,0.00,,---,0.00,VWS V14.01,2013-03-23 23:12:00,
2013-03-23 16:17:00,48.6,27.1,30.36,NNE,22,2.7,2.7,43,0.00,,---,0.00,VWS V14.01,2013-03-23 23:17:00,
2013-03-23 16:22:00,48.4,26.9,30.36,ENE,68,2.0,2.0,43,0.00,,---,0.00,VWS V14.01,2013-03-23 23:22:00,
2013-03-23 16:27:00,48.2,26.8,30.36,NNE,22,2.5,3.1,43,0.00,,---,0.00,VWS V14.01,2013-03-23 23:27:00,
2013-03-23 16:33:00,47.8,26.4,30.36,ENE,68,0.0,0.0,43,0.00,,---,0.00,VWS V14.01,2013-03-23 23:33:00,
2013-03-23 16:38:00,48.0,27.7,30.36,NE,45,1.1,2.2,45,0.00,,---,0.00,VWS V14.01,2013-03-23 23:38:00,
2013-03-23 16:43:00,47.8,27.5,30.36,NNE,22,0.0,0.0,45,0.00,,---,0.00,VWS V14.01,2013-03-23 23:43:00,
2013-03-23 16:48:00,47.7,27.9,30.36,SSW,202,0.0,0.0,46,0.00,,---,0.00,VWS V14.01,2013-03-23 23:48:00,
2013-03-23 16:53:00,47.5,27.8,30.36,NE,45,0.0,0.0,46,0.00,,---,0.00,VWS V14.01,2013-03-23 23:53:00,
2013-03-23 16:58:00,47.3,28.1,30.36,NE,45,0.0,0.0,47,0.00,,---,0.00,VWS V14.01,2013-03-23 23:58:00,
2013-03-23 17:03:00,47.3,28.1,30.36,WNW,292,0.0,1.1,47,0.00,,---,0.00,VWS V14.01,2013-03-24 00:03:00,
2013-03-23 17:08:00,47.3,28.1,30.36,SW,225,0.0,2.0,47,0.00,,---,0.00,VWS V14.01,2013-03-24 00:08:00,
2013-03-23 17:14:00,47.5,28.3,30.36,SSW,202,0.0,0.0,47,0.00,,---,0.00,VWS V14.01,2013-03-24 00:14:00,
2013-03-23 17:19:00,47.8,28.6,30.36,South,180,0.0,2.2,47,0.00,,---,0.00,VWS V14.01,2013-03-24 00:19:00,
2013-03-23 17:24:00,48.0,28.2,30.36,SSW,202,0.0,2.2,46,0.00,,---,0.00,VWS V14.01,2013-03-24 00:24:00,
2013-03-23 17:29:00,48.0,28.8,30.36,WSW,248,0.0,1.3,47,0.00,,---,0.00,VWS V14.01,2013-03-24 00:29:00,
2013-03-23 17:34:00,47.8,28.6,30.36,WNW,292,0.0,0.0,47,0.00,,---,0.00,VWS V14.01,2013-03-24 00:34:00,
2013-03-23 17:39:00,47.8,28.6,30.36,NW,315,0.0,0.0,47,0.00,,---,0.00,VWS V14.01,2013-03-24 00:39:00,
2013-03-23 17:44:00,47.7,28.4,30.36,NW,315,0.0,0.0,47,0.00,,---,0.00,VWS V14.01,2013-03-24 00:44:00,
2013-03-23 17:50:00,47.5,28.3,30.36,NNE,22,0.0,0.0,47,0.00,,---,0.00,VWS V14.01,2013-03-24 00:50:00,
2013-03-23 17:55:00,47.3,28.1,30.36,NNE,22,0.0,0.0,47,0.00,,---,0.00,VWS V14.01,2013-03-24 00:55:00,
2013-03-23 18:00:00,47.1,27.4,30.36,NNW,338,0.0,0.0,46,0.00,,---,0.00,VWS V14.01,2013-03-24 01:00:00,
2013-03-23 18:05:00,46.9,27.8,30.36,SSE,158,0.0,2.0,47,0.00,,---,0.00,VWS V14.01,2013-03-24 01:05:00,
2013-03-23 18:10:00,46.6,27.5,30.33,SSW,202,0.0,1.6,47,0.00,,---,0.00,VWS V14.01,2013-03-24 01:10:00,
2013-03-23 18:15:00,46.2,27.6,30.33,South,180,0.0,0.0,48,0.00,,---,0.00,VWS V14.01,2013-03-24 01:15:00,
2013-03-23 18:20:00,45.9,27.3,30.33,South,180,0.9,1.6,48,0.00,,---,0.00,VWS V14.01,2013-03-24 01:20:00,
2013-03-23 18:25:00,45.5,27.5,30.33,WSW,248,0.0,0.0,49,0.00,,---,0.00,VWS V14.01,2013-03-24 01:25:00,
2013-03-23 18:30:00,45.0,27.0,30.33,SSW,202,0.0,0.0,49,0.00,,---,0.00,VWS V14.01,2013-03-24 01:30:00,
2013-03-23 18:36:00,44.4,27.0,30.33,WSW,248,0.0,0.0,50,0.00,,---,0.00,VWS V14.01,2013-03-24 01:36:00,
2013-03-23 18:41:00,43.7,27.2,30.36,WSW,248,0.0,0.0,52,0.00,,---,0.00,VWS V14.01,2013-03-24 01:41:00,
2013-03-23 18:46:00,43.3,27.8,30.36,WSW,248,0.0,0.0,54,0.00,,---,0.00,VWS V14.01,2013-03-24 01:46:00,
2013-03-23 18:51:00,43.0,27.9,30.36,WSW,248,0.0,0.0,55,0.00,,---,0.00,VWS V14.01,2013-03-24 01:51:00,
2013-03-23 18:56:00,42.4,27.9,30.33,WSW,248,0.0,0.0,56,0.00,,---,0.00,VWS V14.01,2013-03-24 01:56:00,
2013-03-23 19:01:00,42.1,28.4,30.33,WSW,248,0.0,0.0,58,0.00,,---,0.00,VWS V14.01,2013-03-24 02:01:00,
2013-03-23 19:06:00,41.5,28.3,30.33,WSW,248,0.0,0.0,59,0.00,,---,0.00,VWS V14.01,2013-03-24 02:06:00,
2013-03-23 19:12:00,41.2,28.0,30.33,WSW,248,0.0,0.0,59,0.00,,---,0.00,VWS V14.01,2013-03-24 02:12:00,
2013-03-23 19:17:00,40.6,28.6,30.33,WSW,248,0.0,0.0,62,0.00,,---,0.00,VWS V14.01,2013-03-24 02:17:00,
2013-03-23 19:22:00,40.1,28.5,30.33,WSW,248,0.0,0.0,63,0.00,,---,0.00,VWS V14.01,2013-03-24 02:22:00,
2013-03-23 19:27:00,39.4,28.6,30.33,WSW,248,0.0,0.0,65,0.00,,---,0.00,VWS V14.01,2013-03-24 02:27:00,
2013-03-23 19:32:00,39.2,28.8,30.33,West,270,0.0,0.0,66,0.00,,---,0.00,VWS V14.01,2013-03-24 02:32:00,
2013-03-23 19:37:00,38.8,29.2,30.33,West,270,0.0,0.0,68,0.00,,---,0.00,VWS V14.01,2013-03-24 02:37:00,
2013-03-23 19:42:00,38.5,28.9,30.33,West,270,0.0,0.0,68,0.00,,---,0.00,VWS V14.01,2013-03-24 02:42:00,
2013-03-23 19:47:00,37.8,28.9,30.33,West,270,0.0,0.0,70,0.00,,---,0.00,VWS V14.01,2013-03-24 02:47:00,
2013-03-23 19:53:00,37.4,28.9,30.33,West,270,0.0,0.0,71,0.00,,---,0.00,VWS V14.01,2013-03-24 02:53:00,
2013-03-23 19:58:00,36.9,28.7,30.33,West,270,0.0,0.0,72,0.00,,---,0.00,VWS V14.01,2013-03-24 02:58:00,
2013-03-23 20:03:00,36.9,29.0,30.33,West,270,0.0,0.0,73,0.00,,---,0.00,VWS V14.01,2013-03-24 03:03:00,
2013-03-23 20:08:00,36.7,28.9,30.33,West,270,0.0,0.0,73,0.00,,---,0.00,VWS V14.01,2013-03-24 03:08:00,
2013-03-23 20:13:00,36.7,29.5,30.33,West,270,0.0,0.0,75,0.00,,---,0.00,VWS V14.01,2013-03-24 03:13:00,
2013-03-23 20:18:00,36.5,29.3,30.33,West,270,0.0,0.0,75,0.00,,---,0.00,VWS V14.01,2013-03-24 03:18:00,
2013-03-23 20:24:00,36.5,29.7,30.33,WSW,248,0.0,0.0,76,0.00,,---,0.00,VWS V14.01,2013-03-24 03:24:00,
2013-03-23 20:29:00,36.3,29.5,30.33,WSW,248,0.0,0.0,76,0.00,,---,0.00,VWS V14.01,2013-03-24 03:29:00,
2013-03-23 20:34:00,36.3,29.5,30.33,WSW,248,0.0,0.0,76,0.00,,---,0.00,VWS V14.01,2013-03-24 03:34:00,
2013-03-23 20:39:00,36.3,29.8,30.33,WSW,248,0.0,0.0,77,0.00,,---,0.00,VWS V14.01,2013-03-24 03:39:00,
2013-03-23 20:44:00,36.1,29.6,30.33,WSW,248,0.0,0.0,77,0.00,,---,0.00,VWS V14.01,2013-03-24 03:44:00,
2013-03-23 20:49:00,36.1,29.6,30.33,WSW,248,0.0,0.0,77,0.00,,---,0.00,VWS V14.01,2013-03-24 03:49:00,
2013-03-23 20:54:00,36.1,29.6,30.33,WSW,248,0.0,0.0,77,0.00,,---,0.00,VWS V14.01,2013-03-24 03:54:00,
2013-03-23 21:00:00,36.1,30.0,30.33,WSW,248,0.0,0.0,78,0.00,,---,0.00,VWS V14.01,2013-03-24 04:00:00,
2013-03-23 21:01:00,36.1,30.0,30.33,WSW,248,0.0,0.0,78,0.00,,---,0.00,VWS V14.01,2013-03-24 04:01:00,
2013-03-23 21:02:00,36.1,30.0,30.33,WSW,248,0.0,0.0,78,0.00,,---,0.00,VWS V14.01,2013-03-24 04:02:00,
2013-03-23 21:08:00,36.0,29.8,30.33,WSW,248,0.0,0.0,78,0.00,,---,0.00,VWS V14.01,2013-03-24 04:08:00,
2013-03-23 21:13:00,36.0,30.1,30.36,WSW,248,0.0,0.0,79,0.00,,---,0.00,VWS V14.01,2013-03-24 04:13:00,
2013-03-23 21:18:00,35.8,29.9,30.36,WSW,248,0.0,0.0,79,0.00,,---,0.00,VWS V14.01,2013-03-24 04:18:00,
2013-03-23 21:23:00,35.6,29.7,30.36,WSW,248,0.0,0.0,79,0.00,,---,0.00,VWS V14.01,2013-03-24 04:23:00,
2013-03-23 21:28:00,35.4,29.9,30.36,WSW,248,0.0,0.0,80,0.00,,---,0.00,VWS V14.01,2013-03-24 04:28:00,
2013-03-23 21:33:00,35.4,29.9,30.36,WSW,248,0.0,0.0,80,0.00,,---,0.00,VWS V14.01,2013-03-24 04:33:00,
2013-03-23 21:38:00,35.2,29.7,30.36,WSW,248,0.0,0.0,80,0.00,,---,0.00,VWS V14.01,2013-03-24 04:38:00,
2013-03-23 21:44:00,35.2,29.7,30.36,WSW,248,0.0,0.0,80,0.00,,---,0.00,VWS V14.01,2013-03-24 04:44:00,
2013-03-23 21:49:00,35.1,29.8,30.36,WSW,248,0.0,0.0,81,0.00,,---,0.00,VWS V14.01,2013-03-24 04:49:00,
2013-03-23 21:54:00,34.9,30.0,30.36,WSW,248,0.0,0.0,82,0.00,,---,0.00,VWS V14.01,2013-03-24 04:54:00,
2013-03-23 21:59:00,34.9,30.2,30.36,WSW,248,0.0,0.0,83,0.00,,---,0.00,VWS V14.01,2013-03-24 04:59:00,
2013-03-23 22:04:00,34.5,30.2,30.36,WSW,248,0.0,0.0,84,0.00,,---,0.00,VWS V14.01,2013-03-24 05:04:00,
2013-03-23 22:09:00,34.5,30.2,30.36,WSW,248,0.0,0.0,84,0.00,,---,0.00,VWS V14.01,2013-03-24 05:09:00,
2013-03-23 22:14:00,34.3,30.0,30.36,WSW,248,0.0,0.0,84,0.00,,---,0.00,VWS V14.01,2013-03-24 05:14:00,
2013-03-23 22:19:00,34.0,29.7,30.36,WSW,248,0.0,0.0,84,0.00,,---,0.00,VWS V14.01,2013-03-24 05:19:00,
2013-03-23 22:24:00,33.8,29.2,30.36,WSW,248,0.0,0.0,83,0.00,,---,0.00,VWS V14.01,2013-03-24 05:24:00,
2013-03-23 22:30:00,33.8,29.5,30.36,WSW,248,0.0,0.0,84,0.00,,---,0.00,VWS V14.01,2013-03-24 05:30:00,
2013-03-23 22:35:00,33.4,29.4,30.36,WSW,248,0.0,0.0,85,0.00,,---,0.00,VWS V14.01,2013-03-24 05:35:00,
2013-03-23 22:40:00,33.3,29.2,30.33,WSW,248,0.0,0.0,85,0.00,,---,0.00,VWS V14.01,2013-03-24 05:40:00,
2013-03-23 22:45:00,33.1,29.4,30.33,WSW,248,0.0,0.0,86,0.00,,---,0.00,VWS V14.01,2013-03-24 05:45:00,
2013-03-23 22:50:00,33.1,29.4,30.33,WSW,248,0.0,0.0,86,0.00,,---,0.00,VWS V14.01,2013-03-24 05:50:00,
2013-03-23 22:55:00,33.1,29.6,30.36,WSW,248,0.0,0.0,87,0.00,,---,0.00,VWS V14.01,2013-03-24 05:55:00,
2013-03-23 23:01:00,33.1,29.6,30.36,WSW,248,0.0,0.0,87,0.00,,---,0.00,VWS V14.01,2013-03-24 06:01:00,
2013-03-23 23:06:00,33.1,29.6,30.36,WSW,248,0.0,0.0,87,0.00,,---,0.00,VWS V14.01,2013-03-24 06:06:00,
2013-03-23 23:11:00,33.1,29.6,30.33,WSW,248,0.0,0.0,87,0.00,,---,0.00,VWS V14.01,2013-03-24 06:11:00,
2013-03-23 23:16:00,32.9,29.5,30.33,WSW,248,0.0,0.0,87,0.00,,---,0.00,VWS V14.01,2013-03-24 06:16:00,
2013-03-23 23:21:00,32.9,29.5,30.33,WSW,248,0.0,0.0,87,0.00,,---,0.00,VWS V14.01,2013-03-24 06:21:00,
2013-03-23 23:26:00,32.9,29.5,30.33,WSW,248,0.0,0.0,87,0.00,,---,0.00,VWS V14.01,2013-03-24 06:26:00,
2013-03-23 23:31:00,32.9,29.7,30.33,WSW,248,0.0,0.0,88,0.00,,---,0.00,VWS V14.01,2013-03-24 06:31:00,
2013-03-23 23:36:00,32.9,29.7,30.33,WSW,248,0.0,0.0,88,0.00,,---,0.00,VWS V14.01,2013-03-24 06:36:00,
2013-03-23 23:41:00,32.7,29.6,30.33,WSW,248,0.0,0.0,88,0.00,,---,0.00,VWS V14.01,2013-03-24 06:41:00,
2013-03-23 23:46:00,32.5,29.7,30.33,WSW,248,0.0,0.0,89,0.00,,---,0.00,VWS V14.01,2013-03-24 06:46:00,
2013-03-23 23:51:00,32.4,29.5,30.33,WSW,248,0.0,0.0,89,0.00,,---,0.00,VWS V14.01,2013-03-24 06:51:00,
2013-03-23 23:56:00,32.2,29.3,30.33,WSW,248,0.0,0.0,89,0.00,,---,0.00,VWS V14.01,2013-03-24 06:56:00,